timestamp,surface_pressure_avg,surface_temp_avg,battery_voltage,lat,long
2017-10-26 00:00:00+00:00,252.0797,9.99,13.05,47.84626,-54.09684
2017-10-26 00:10:00+00:00,246.9414,9.98,12.97,47.84626,-54.09684
2017-10-26 00:20:00+00:00,250.7014,9.99,13.05,47.84626,-54.09684
2017-10-26 00:30:00+00:00,258.2481,9.99,13.05,47.84626,-54.09684
2017-10-26 00:40:00+00:00,258.9732,10.0,13.05,47.84626,-54.09684
2017-10-26 00:50:00+00:00,261.5664,10.0,13.05,47.84626,-54.09684
2017-10-26 01:00:00+00:00,268.3781,10.0,12.97,47.84626,-54.09684
2017-10-26 01:10:00+00:00,272.3964,10.0,12.97,47.84626,-54.09684
2017-10-26 01:20:00+00:00,271.2997,10.0,13.05,47.84626,-54.09684
2017-10-26 01:30:00+00:00,277.3247,10.0,13.05,47.84626,-54.09684
2017-10-26 01:40:00+00:00,286.0214,10.0,13.05,47.84626,-54.09684
2017-10-26 01:50:00+00:00,289.253,10.0,13.05,47.84626,-54.09684
2017-10-26 02:00:00+00:00,287.5264,10.0,12.97,47.84626,-54.09684
2017-10-26 02:10:00+00:00,292.4614,10.0,12.89,47.84626,-54.09684
2017-10-26 02:20:00+00:00,296.768,10.0,12.97,47.84626,-54.09684
2017-10-26 02:30:00+00:00,294.7714,9.99,12.97,47.84626,-54.09684
2017-10-26 02:40:00+00:00,292.533,9.99,13.05,47.84626,-54.09684
2017-10-26 02:50:00+00:00,297.9647,10.0,13.05,47.84626,-54.09684
2017-10-26 03:00:00+00:00,300.1496,10.0,12.97,47.84626,-54.09684
2017-10-26 03:10:00+00:00,296.438,9.99,12.89,47.84626,-54.09684
2017-10-26 03:20:00+00:00,293.3431,9.99,12.97,47.84626,-54.09684
2017-10-26 03:30:00+00:00,295.8448,9.9,12.97,47.84626,-54.09684
2017-10-26 03:40:00+00:00,295.2514,9.89,12.97,47.84626,-54.09684
2017-10-26 03:50:00+00:00,293.8863,9.86,12.97,47.84626,-54.09684
2017-10-26 04:00:00+00:00,292.5065,9.9,12.97,47.84626,-54.09684
2017-10-26 04:10:00+00:00,295.498,9.93,12.89,47.84626,-54.09684
2017-10-26 04:20:00+00:00,294.8297,9.96,12.97,47.84626,-54.09684
2017-10-26 04:30:00+00:00,293.6746,9.96,12.97,47.84626,-54.09684
2017-10-26 04:40:00+00:00,293.273,9.98,12.97,47.84626,-54.09684
2017-10-26 04:50:00+00:00,295.4597,10.0,12.97,47.84626,-54.09684
2017-10-26 05:00:00+00:00,295.263,10.0,12.97,47.84626,-54.09684
2017-10-26 05:10:00+00:00,292.9514,9.99,12.89,47.84626,-54.09684
2017-10-26 05:20:00+00:00,290.1447,9.99,12.97,47.84626,-54.09684
2017-10-26 05:30:00+00:00,288.7012,9.99,12.97,47.84626,-54.09684
2017-10-26 05:40:00+00:00,284.6714,10.0,12.97,47.84626,-54.09684
2017-10-26 05:50:00+00:00,281.0914,10.0,12.97,47.84626,-54.09684
2017-10-26 06:00:00+00:00,277.0414,10.0,12.89,47.84626,-54.09684
2017-10-26 06:10:00+00:00,270.838,10.0,12.81,47.84626,-54.09684
2017-10-26 06:20:00+00:00,260.2881,10.0,12.89,47.84626,-54.09684
2017-10-26 06:30:00+00:00,252.4131,9.99,12.89,47.84626,-54.09684
2017-10-26 06:40:00+00:00,247.5431,9.99,12.97,47.84626,-54.09684
2017-10-26 06:50:00+00:00,241.3064,10.0,12.97,47.84626,-54.09684
2017-10-26 07:00:00+00:00,233.6297,10.0,12.89,47.84626,-54.09684
2017-10-26 07:10:00+00:00,226.9764,10.0,12.81,47.84626,-54.09684
2017-10-26 07:20:00+00:00,223.9764,10.0,12.89,47.84626,-54.09684
2017-10-26 07:30:00+00:00,222.7547,10.0,12.89,47.84626,-54.09684
2017-10-26 07:40:00+00:00,217.8281,10.0,12.89,47.84626,-54.09684
2017-10-26 07:50:00+00:00,215.0314,9.98,12.89,47.84626,-54.09684
2017-10-26 08:00:00+00:00,213.2815,9.9,12.89,47.84626,-54.09684
2017-10-26 08:10:00+00:00,206.5598,9.9,12.81,47.84626,-54.09684
2017-10-26 08:20:00+00:00,200.4032,9.81,12.89,47.84626,-54.09684
2017-10-26 08:30:00+00:00,202.9965,9.9,12.89,47.84626,-54.09684
2017-10-26 08:40:00+00:00,205.3631,9.9,12.89,47.84626,-54.09684
2017-10-26 08:50:00+00:00,202.2197,9.8,12.89,47.84626,-54.09684
2017-10-26 09:00:00+00:00,205.2498,9.7,12.81,47.84626,-54.09684
2017-10-26 09:10:00+00:00,211.6314,9.7,12.81,47.84626,-54.09684
2017-10-26 09:20:00+00:00,210.9365,9.7,12.89,47.84626,-54.09684
2017-10-26 09:30:00+00:00,210.4465,9.5,12.89,47.84626,-54.09684
2017-10-26 09:40:00+00:00,214.0281,9.5,12.89,47.84626,-54.09684
2017-10-26 09:50:00+00:00,214.8648,9.6,12.89,47.84626,-54.09684
2017-10-26 10:00:00+00:00,212.7763,9.4,12.81,47.84626,-54.09684
2017-10-26 10:10:00+00:00,213.8282,9.4,12.81,47.84626,-54.09684
2017-10-26 10:20:00+00:00,218.1898,9.4,12.89,47.84626,-54.09684
2017-10-26 10:30:00+00:00,221.1364,9.4,12.89,47.84626,-54.09684
2017-10-26 10:40:00+00:00,222.5514,9.46,12.89,47.84626,-54.09684
2017-10-26 10:50:00+00:00,227.4648,9.68,12.89,47.84626,-54.09684
2017-10-26 11:00:00+00:00,234.2464,9.88,12.81,47.84626,-54.09684
2017-10-26 11:10:00+00:00,234.6931,9.9,12.81,47.84626,-54.09684
2017-10-26 11:20:00+00:00,235.7314,9.8,12.89,47.84626,-54.09684
2017-10-26 11:30:00+00:00,238.7981,9.7,12.89,47.84626,-54.09684
2017-10-26 11:40:00+00:00,243.6764,9.72,12.97,47.84626,-54.09684
2017-10-26 11:50:00+00:00,246.9081,9.77,12.97,47.84626,-54.09684
2017-10-26 12:00:00+00:00,250.4081,9.8,12.97,47.84626,-54.09684
2017-10-26 12:10:00+00:00,251.9815,9.8,12.89,47.84626,-54.09684
2017-10-26 12:20:00+00:00,255.3281,9.9,12.97,47.84626,-54.09684
2017-10-26 12:30:00+00:00,260.1747,9.98,13.05,47.84626,-54.09684
2017-10-26 12:40:00+00:00,265.3414,9.99,13.13,47.84626,-54.09684
2017-10-26 12:50:00+00:00,268.5964,9.9,13.21,47.84626,-54.09684
2017-10-26 13:00:00+00:00,272.9681,9.8,13.21,47.84626,-54.09684
2017-10-26 13:10:00+00:00,279.7614,9.8,13.13,47.84626,-54.09684
2017-10-26 13:20:00+00:00,287.1613,9.91,13.29,47.84626,-54.09684
2017-10-26 13:30:00+00:00,292.7147,10.0,13.29,47.84626,-54.09684
2017-10-26 13:40:00+00:00,297.9247,10.0,13.37,47.84626,-54.09684
2017-10-26 13:50:00+00:00,303.1497,10.0,13.44,47.84626,-54.09684
2017-10-26 14:00:00+00:00,306.7647,9.9,13.37,47.84626,-54.09684
2017-10-26 14:10:00+00:00,308.483,9.8,13.37,47.84626,-54.09684
2017-10-26 14:20:00+00:00,315.0946,9.85,13.44,47.84626,-54.09684
2017-10-26 14:30:00+00:00,320.043,9.9,13.53,47.84626,-54.09684
2017-10-26 14:40:00+00:00,316.558,9.82,13.6,47.84626,-54.09684
2017-10-26 14:50:00+00:00,316.3297,9.86,13.68,47.84626,-54.09684
2017-10-26 15:00:00+00:00,322.0462,9.99,13.6,47.84626,-54.09684
2017-10-26 15:10:00+00:00,324.178,10.0,13.44,47.84626,-54.09684
2017-10-26 15:20:00+00:00,320.938,10.05,13.53,47.84626,-54.09684
2017-10-26 15:30:00+00:00,325.6979,10.1,13.53,47.84626,-54.09684
2017-10-26 15:40:00+00:00,328.4982,10.1,13.53,47.84626,-54.09684
2017-10-26 15:50:00+00:00,325.693,10.1,13.6,47.84626,-54.09684
2017-10-26 16:00:00+00:00,321.7448,10.13,13.53,47.84626,-54.09684
2017-10-26 16:10:00+00:00,325.4396,10.1,13.44,47.84626,-54.09684
2017-10-26 16:20:00+00:00,325.6029,10.13,13.53,47.84626,-54.09684
2017-10-26 16:30:00+00:00,322.0214,10.18,13.6,47.84626,-54.09684
2017-10-26 16:40:00+00:00,322.0996,10.2,13.6,47.84626,-54.09684
2017-10-26 16:50:00+00:00,322.2897,10.2,13.6,47.84626,-54.09684
2017-10-26 17:00:00+00:00,318.9946,10.2,13.53,47.84626,-54.09684
2017-10-26 17:10:00+00:00,315.7847,10.2,13.44,47.84626,-54.09684
2017-10-26 17:20:00+00:00,317.093,10.2,13.53,47.84626,-54.09684
2017-10-26 17:30:00+00:00,311.158,10.2,13.53,47.84626,-54.09684
2017-10-26 17:40:00+00:00,303.3879,10.2,13.68,47.84626,-54.09684
2017-10-26 17:50:00+00:00,301.6696,10.2,13.6,47.84626,-54.09684
2017-10-26 18:00:00+00:00,300.5197,10.2,13.53,47.84626,-54.09684
2017-10-26 18:10:00+00:00,290.1913,10.2,13.84,47.84626,-54.09684
2017-10-26 18:20:00+00:00,282.0613,10.2,13.76,47.84626,-54.09684
2017-10-26 18:30:00+00:00,279.6814,10.2,13.53,47.84626,-54.09684
2017-10-26 18:40:00+00:00,273.2164,10.2,13.44,47.84626,-54.09684
2017-10-26 18:50:00+00:00,260.2114,10.19,13.53,47.84626,-54.09684
2017-10-26 19:00:00+00:00,254.7481,10.2,13.44,47.84626,-54.09684
2017-10-26 19:10:00+00:00,253.2681,10.19,13.29,47.84626,-54.09684
2017-10-26 19:20:00+00:00,245.7681,10.2,13.37,47.84626,-54.09684
2017-10-26 19:30:00+00:00,236.0548,10.2,13.37,47.84626,-54.09684
2017-10-26 19:40:00+00:00,232.6931,10.2,13.29,47.84626,-54.09684
2017-10-26 19:50:00+00:00,228.9297,10.2,13.29,47.84626,-54.09684
2017-10-26 20:00:00+00:00,221.7864,10.2,13.21,47.84626,-54.09684
2017-10-26 20:10:00+00:00,217.5681,10.2,13.13,47.84626,-54.09684
2017-10-26 20:20:00+00:00,215.6547,10.2,13.13,47.84626,-54.09684
2017-10-26 20:30:00+00:00,212.9281,10.2,13.13,47.84626,-54.09684
2017-10-26 20:40:00+00:00,210.5814,10.2,13.13,47.84626,-54.09684
2017-10-26 20:50:00+00:00,209.4215,10.2,13.13,47.84626,-54.09684
2017-10-26 21:00:00+00:00,210.8681,10.2,13.05,47.84626,-54.09684
2017-10-26 21:10:00+00:00,213.9181,10.2,13.05,47.84626,-54.09684
2017-10-26 21:20:00+00:00,216.3515,10.2,13.05,47.84626,-54.09684
2017-10-26 21:30:00+00:00,214.9966,10.2,13.05,47.84626,-54.09684
2017-10-26 21:40:00+00:00,217.6098,10.2,13.13,47.84626,-54.09684
2017-10-26 21:50:00+00:00,225.6064,10.2,13.13,47.84626,-54.09684
2017-10-26 22:00:00+00:00,227.5313,10.2,13.05,47.84626,-54.09684
2017-10-26 22:10:00+00:00,224.8431,10.15,12.97,47.84626,-54.09684
2017-10-26 22:20:00+00:00,226.5215,10.13,13.05,47.84626,-54.09684
2017-10-26 22:30:00+00:00,230.1097,10.15,13.05,47.84626,-54.09684
2017-10-26 22:40:00+00:00,232.7464,10.16,13.05,47.84626,-54.09684
2017-10-26 22:50:00+00:00,238.063,10.17,13.05,47.84626,-54.09684
2017-10-26 23:00:00+00:00,238.9665,10.19,13.05,47.84626,-54.09684
2017-10-26 23:10:00+00:00,236.5265,10.2,12.97,47.84626,-54.09684
2017-10-26 23:20:00+00:00,236.9598,10.19,13.05,47.84626,-54.09684
2017-10-26 23:30:00+00:00,238.9799,10.19,13.05,47.84626,-54.09684
2017-10-26 23:40:00+00:00,237.2413,10.2,13.05,47.84626,-54.09684
2017-10-26 23:50:00+00:00,236.183,10.2,13.05,47.84626,-54.09684
